Location: Komo
(49.8333°N, 121.4167°W)
Time: 04:21:27
(UTC+00:00)

ISS - Visible Passes

Search period start: 18 May 2022 00:00
Search period end: 28 May 2022 00:00
Orbit: 415 x 421 km, 51.6° (Epoch: 17 May)

Date Brightness Start Highest point End Pass type
(mag) Time Alt. Az. Time Alt. Az. Time Alt. Az.
18 May -3.9 05:02:39 10° WSW 05:06:01 81° SSE 05:09:22 10° ENE visible
18 May -3.3 06:39:35 10° W 06:42:55 61° N 06:45:34 15° E visible
18 May -2.6 08:16:27 10° WNW 08:18:28 33° W 08:18:28 33° W visible
19 May -3.3 05:51:36 10° W 05:54:57 63° N 05:58:17 10° ENE visible
19 May -3.8 07:28:31 10° WNW 07:31:54 84° NNE 07:31:58 82° NE visible
20 May -3.4 05:03:37 10° W 05:06:58 69° N 05:10:20 10° ENE visible
20 May -3.6 06:40:35 10° WNW 06:43:56 70° N 06:45:29 29° E visible
20 May -1.6 08:17:27 10° W 08:18:24 17° W 08:18:24 17° W visible
21 May -3.4 05:52:36 10° WNW 05:55:57 63° N 05:59:02 12° E visible
21 May -3.1 07:29:27 10° WNW 07:31:56 42° W 07:31:56 42° W visible
22 May -3.2 05:04:36 10° W 05:07:56 61° N 05:11:16 10° E visible
22 May -3.9 06:41:27 10° WNW 06:44:49 79° SSW 06:45:29 54° SE visible
23 May -3.8 05:53:27 10° WNW 05:56:50 83° NNE 05:59:02 20° ESE visible
23 May -1.9 07:30:26 10° W 07:31:56 20° WSW 07:31:56 20° WSW visible
24 May -3.5 05:05:26 10° WNW 05:08:48 70° N 05:12:09 10° E visible
24 May -3.3 06:42:19 10° W 06:45:29 42° SSW 06:45:29 42° SSW visible
25 May -3.7 05:54:14 10° WNW 05:57:33 59° SSW 05:59:03 29° SE visible
26 May -3.8 05:06:11 10° WNW 05:09:32 80° SSW 05:12:37 12° ESE visible
26 May -2.0 06:43:23 10° W 06:45:32 20° SW 06:45:32 20° SW visible
27 May -2.7 05:55:04 10° W 05:58:03 30° SSW 05:59:07 24° S visible
